Other Public Products
Issued by NWS Grand Forks, ND

Home | Current Version | Previous Version | Graphics & Text | Print | Product List | Glossary On
Versions: 1 2 3 4 5 6 7 8 9 10 11 12 13 14 15 16 17 18 19 20 21 22 23 24 25 26 27 28 29 30 31 32 33 34 35 36 37 38 39 40 41 42 43 44 45 46 47 48 49 50
000
FPUS83 KFGF 212010
OPUFGF
PRAIRIE TO PINES WEATHER ROUNDUP
NATIONAL WEATHER SERVICE EASTERN NORTH DAKOTA/GRAND FORKS ND
300 PM CDT THU AUG 21 2014

 **SATELLITE DATA USED TO AUGMENT SKY COVER AT AUTOMATED STATIONS**
 *****  WEATHER ACROSS EASTERN NORTH DAKOTA  *****

CITY           SKY/WX    TMP DP  RH WIND       PRES   REMARKS
GRAND FORKS    CLOUDY    76  68  76 CALM      29.79R
GRAND FORKS AF CLOUDY    76  70  81 VRB5      29.80S
GRAND CITY NWS   N/A     59 N/A N/A SW3         N/A
BUXTON         NOT AVBL
DEVILS LAKE    CLOUDY    73  66  78 NE9       29.81R
FARGO          CLOUDY    76  69  79 E10       29.78R
WAHPETON ARPT  CLOUDY    77  64  65 CALM      29.78S
$$

 *****  WEATHER ACROSS CENTRAL AND WESTERN NORTH DAKOTA  *****

CITY           SKY/WX    TMP DP  RH WIND       PRES   REMARKS
JAMESTOWN      PTSUNNY   77  68  73 NW10      29.81R
BISMARCK       MOSUNNY   80  64  58 NW13      29.87S
MINOT          CLOUDY    73  61  65 NW14      29.88R
MINOT AFB      MOSUNNY   74  63  69 NW14      29.87S
GARRISON         N/A     77  62  59 NW15      29.89R
WILLISTON      CLOUDY    70  58  65 NW8       29.96S
DICKINSON      MOSUNNY   79  61  53 N9        29.93S
HETTINGER      SUNNY     80  58  46 N8        29.94S
$$

 *****  OTHER OBSERVATIONS NORTHEAST NORTH DAKOTA  *****

CITY           SKY/WX    TMP DP  RH WIND       PRES   REMARKS
WALHALLA       CLOUDY    72  72 100 NE3       29.82S
LANGDON        CLOUDY    70  66  88 CALM      29.84S FOG
CAVALIER       CLOUDY    73  66  78 E5        29.81S
GRAFTON        CLOUDY    75  68  78 N6        29.80R
CANDO          MOCLDY    70  68  94 N8        29.84S FOG
FORT TOTTEN      N/A     75  68  77 N5        29.95
ROLLA          MOCLDY    72  72 100 N12       29.87S
RUGBY          FAIR      77  68  73 N10       29.84S
 ***** THE ABOVE OBSERVATIONS ARE NON NWS ARE NOT QUALITY
        CONTROLLED AND MAY MIS-REPORT RAIN FOR SNOW...
$$

 *****  OTHER OBSERVATIONS SOUTHEAST NORTH DAKOTA *****

CITY           SKY/WX    TMP DP  RH WIND       PRES   REMARKS
COOPERSTOWN    NOT AVBL
VALLEY CITY    CLOUDY    77  72  83 N6        29.81R
OAKES          NOT AVBL
GWINNER        CLEAR     81  70  69 NW6       29.80R
SHEYENNE NWR     N/A     82  70  66 CALM      29.95S
BUFFALO        NOT AVBL
WYNDMERE       NOT AVBL
 ***** THE ABOVE OBSERVATIONS ARE NON NWS ARE NOT QUALITY
       CONTROLLED AND MAY MIS-REPORT RAIN FOR SNOW...
$$

  *****  WEATHER ACROSS NORTHERN MINNESOTA  *****

CITY           SKY/WX    TMP DP  RH WIND       PRES   REMARKS
FLAG ISLAND      N/A     66  63  88 CALM      29.85F
WARROAD        CLOUDY    66  63  88 E6        29.87R
ROSEAU         PTSUNNY   70  63  78 E6        29.85S THUNDER
HALLOCK        PTSUNNY   73  66  78 NE7       29.81R
THF RVR FALLS  CLOUDY    77  66  69 NW5       29.81R
HALSTAD          N/A     77  66  69 E3          N/A
FOSSTON        CLOUDY    73  64  73 E3        29.82R
BAUDETTE       CLOUDY    68  63  84 E12       29.85S
WASKISH        CLOUDY    73  66  78 CALM      29.84S
CROOKSTON      PTSUNNY   77  66  69 SW3       29.80R
$$
  *****  WEATHER ACROSS CENTRAL AND WEST MINNESOTA  *****

CITY           SKY/WX    TMP DP  RH WIND       PRES   REMARKS
BEMIDJI        CLOUDY    71  64  81 SE7       29.84S
PARK RAPIDS    CLOUDY    70  65  84 E8        29.83S
WADENA         CLOUDY    72  66  83 E9        29.81R
DETROIT LAKES  PTSUNNY   73  68  83 S6        29.83R
MOORHEAD       CLOUDY    75  72  88 SE3       29.79R
FERGUS FALLS   CLOUDY    73  66  78 E6        29.79R
ELBOW LAKE     CLOUDY    76  70  82 E3        29.79S
MORRIS MN      SUNNY     82  70  65 N8        29.78R
STAPLES        CLOUDY    70  66  88 E5        29.82S
WHEATON        MOSUNNY   77  68  73 N5        29.80R
$$
  *****  WEATHER ELSEWHERE ACROSS MINNESOTA  *****

CITY           SKY/WX    TMP DP  RH WIND       PRES   REMARKS
DULUTH         CLOUDY    67  60  78 E14       29.89S
INTRNTL FALLS  CLOUDY    69  61  75 E10       29.88S
ELY            CLOUDY    64  57  77 E8        29.92S
CLOQUET        CLOUDY    66  61  82 E12G21    29.88S
BRAINERD       CLOUDY    70  66  87 VRB7      29.82F
HIBBING        CLOUDY    73  62  68 E8        29.88S
ALEXANDRIA     CLOUDY    73  69  87 E8        29.82R
SAINT CLOUD    CLOUDY    76  70  82 E5        29.79R
MINNEAPOLIS    CLOUDY    81  72  74 NE13      29.77R
$$

  *****  WEATHER ACROSS SOUTH DAKOTA  *****

CITY           SKY/WX    TMP DP  RH WIND       PRES   REMARKS
SIOUX FALLS    MOSUNNY   90  75  61 NW10      29.79R HX 100
BROOKINGS      NOT AVBL
WATERTOWN      SUNNY     81  68  64 W13       29.82R
HURON          SUNNY     86  67  52 NW13      29.80S
SISSETON         N/A     81  70  69 NW14      29.77R
ABERDEEN       MOSUNNY   82  68  62 NW10      29.80R
MITCHELL       MOSUNNY   87  69  54 VRB6      29.82R HX  91
PIERRE         SUNNY     84  63  49 W14       29.86R
MOBRIDGE       SUNNY     82  65  56 NW8       29.84S
RAPID CITY     MOSUNNY   81  55  40 SE8       29.96F
$$

  *****  SOME WEATHER IN NEARBY STATES *****

CITY           SKY/WX    TMP DP  RH WIND       PRES   REMARKS
GLASGOW MT     PTSUNNY   68  58  70 NW12G17   29.97S
GREAT FALLS MT CLOUDY    61  51  70 NW7       30.09S
CHEYENNE WY    PTSUNNY   80  43  26 NW12G18   30.14F
SCOTTSBLUFF NE SUNNY     87  51  28 NW7       30.01F
OMAHA NE       MOSUNNY   89  68  49 S12       29.84R HX  93
DES MOINES IA  PTSUNNY   85  73  67 S12       29.85F HX  91
DAVENPORT IA   CLOUDY    79  72  79 CALM      29.92F
CHICAGO IL     CLOUDY    78  69  73 CALM      29.95F
EAU CLAIRE WI  CLOUDY    77  69  76 SE14      29.83S
LA CROSSE WI   PTSUNNY   82  71  69 S7        29.83S
$$

  *****  SOME NATIONAL WEATHER *****

CITY           SKY/WX    TMP DP  RH WIND       PRES   REMARKS
LA GUARDIA NY  PTSUNNY   79  57  46 S14       30.02F
RALEIGH NC     PTSUNNY   90  67  46 W8        30.05F HX  93
ATLANTA GA     MOSUNNY   91  70  49 NW8       30.12F HX  96
NEW ORLEANS LA PTSUNNY   94  75  54 NE10      30.08F HX 105
OKLAHOMA CITY  MOSUNNY   96  68  39 S9G23     29.94F HX 101
ALBUQUERQUE NM MOSUNNY   87  41  19 CALM      30.13F
SALT LAKE CITY CLOUDY    78  47  33 S5        30.08F
LOS ANGELES CA MOSUNNY   74  61  63 SW14      29.96F
BOISE ID       MOSUNNY   80  41  24 W7        29.96F
SEATTLE WA     MOSUNNY   64  49  57 S3        30.05F
$$

*** WEATHER ACROSS MANITOBA...SASKATCHEWAN AND ONTARIO ***
                ***ONTARIO***

CITY           SKY/WX    TMP DP  RH WIND       PRES   REMARKS
GERALDTON      CLOUDY    70  61  73 E3        30.01R
THUNDER BAY    CLOUDY    68  61  77 E13       29.96F
SIOUX LOOKOUT  CLOUDY    72  61  68 SE7       29.92F
TORONTO        PTSUNNY   79  64  61 VRB2      29.93F
BIG TROUT LK   CLOUDY    73  61  64 S6        29.93S
PICKLE LAKE    CLOUDY    70  59  68 E15       29.96S
DRYDEN         PTSUNNY   72  59  64 SE10G17   29.91S
KENORA         PTSUNNY   68  59  73 E10       29.89F
$$
                *** MANITOBA***

CITY           SKY/WX    TMP DP  RH WIND       PRES   REMARKS
BRANDON        NOT AVBL
DAUPHIN        LGT RAIN  63  61  94 NW6       29.91R FOG
ISLAND LAKE    CLOUDY    73  68  83 CALM      29.85R
PILOT MOUND      N/A     68  66  94 N5          N/A
THE PAS        CLOUDY    63  55  77 NW14      29.95R
THOMPSON       LGT RAIN  55  55 100 N8G17     29.91R
WINNIPEG       PTSUNNY   77  68  73 NE6       29.82S
LYNN LAKE      CLOUDY    57  52  82 MISG      30.01R
CHURCHILL      LGT RAIN  46  46 100 N20G28    29.88F FOG
GILLAM         LGT RAIN  66  66 100 NW14      29.82
$$
                ***SASKATCHEWAN***

CITY           SKY/WX    TMP DP  RH WIND       PRES   REMARKS
ESTEVAN        CLOUDY    66  61  82 NW9       29.96R
KINDERSLEY     NOT AVBL
LLOYDMINSTER   PTSUNNY   59  43  55 N13       30.16R
PRINCE ALBERT  PTSUNNY   63  55  77 NE15G22   30.07R
REGINA         CLOUDY    64  55  72 N17       30.00R



USA.gov is the U.S. government's official web portal to all federal, state and local government web resources and services.